Printer-friendly version

IAU Minor Planet Center

Minor Planet Center

P/2009 O3 (Hill)

Orbital Elements

The following orbital elements are taken from MPC 67147:
P/2009 O3 (Hill)
Epoch 2009 May 9.0 TT = JDT 2454960.5
T 2009 May 18.6317 TT                                   MPC
q   2.449943             (2000.0)            P               Q
n   0.0449627      Peri.  154.5572      +0.9281560      +0.3717394
a   7.832512       Node   183.7654      -0.3709735      +0.9200126
e   0.687209       Incl.   16.2145      -0.0300851      +0.1240427
P  21.9
From 234 observations 2009 July 29-Sept. 30, mean residual 0".7.
Elements are also available for the current standard epoch:
P/2009 O3 (Hill)
Epoch 2010 Jan. 4.0 TT = JDT 2455200.5
T 2009 May 18.5747 TT                                   MPC
q   2.449937             (2000.0)            P               Q
n   0.0450864      Peri.  154.5450      +0.9280709      +0.3719519
a   7.818178       Node   183.7644      -0.3711857      +0.9199348
e   0.686636       Incl.   16.2178      -0.0300935      +0.1239830
P  21.9
An explanation of the orbital elements is available.

These orbital elements are also available in forms suitable for loading into a number of popular planetarium-type software programs.


Ephemeris

The following ephemeris is at intervals of five days. A daily ephemeris covering the same time interval is also available.

Personalized ephemerides for this (and other) objects may be generated using the Minor Planet & Comet Ephemeris Service.

Recent magnitude estimates for this comet (as reported to the ICQ) may be available.

Date    TT    R. A. (2000) Decl.     Delta      r     Elong.  Phase   m1    m2

WARNING!

This comet gets close to the sun during the period covered in the ephemeris below. Observers are warned to be wary of observing comets near the sun. NEVER point any kind of optical instrument at the sun--instant blindness will be the probable result.

2009 10 26 01 36.43 -00 12.1 1.863 2.838 166.0 4.9 18.4 2009 10 31 01 34.33 -00 47.8 1.902 2.860 161.2 6.4 18.5 2009 11 05 01 32.49 -01 18.6 1.947 2.882 156.2 8.0 18.5 2009 11 10 01 30.97 -01 44.4 1.999 2.905 151.0 9.5 18.6 2009 11 15 01 29.82 -02 05.0 2.056 2.928 145.8 10.9 18.7 2009 11 20 01 29.08 -02 20.2 2.119 2.951 140.8 12.2 18.8 2009 11 25 01 28.78 -02 30.4 2.187 2.975 135.8 13.4 18.9 2009 11 30 01 28.93 -02 35.6 2.260 2.999 130.9 14.4 19.0 2009 12 05 01 29.54 -02 36.2 2.337 3.024 126.1 15.3 19.1 2009 12 10 01 30.59 -02 32.5 2.417 3.048 121.4 16.0 19.3 2009 12 15 01 32.07 -02 24.9 2.501 3.073 116.8 16.6 19.4 2009 12 20 01 33.98 -02 13.7 2.588 3.099 112.4 17.1 19.5 2009 12 25 01 36.28 -01 59.3 2.677 3.124 108.0 17.4 19.6 2009 12 30 01 38.96 -01 42.0 2.768 3.150 103.7 17.7 19.7 2010 01 04 01 42.00 -01 22.4 2.861 3.176 99.6 17.8 19.8 2010 01 09 01 45.36 -01 00.5 2.955 3.202 95.5 17.8 19.9 2010 01 14 01 49.02 -00 36.9 3.050 3.229 91.5 17.7 20.0 2010 01 19 01 52.97 -00 11.6 3.145 3.255 87.6 17.6 20.1 2010 01 24 01 57.17 +00 14.9 3.241 3.282 83.7 17.3 20.2 2010 01 29 02 01.62 +00 42.4 3.336 3.309 79.9 17.0 20.3 2010 02 03 02 06.28 +01 10.6 3.431 3.336 76.2 16.7 20.4 2010 02 08 02 11.14 +01 39.4 3.525 3.364 72.5 16.2 20.5 2010 02 13 02 16.17 +02 08.6 3.619 3.391 68.9 15.8 20.6 2010 02 18 02 21.38 +02 38.0 3.711 3.419 65.3 15.2 20.7 2010 02 23 02 26.73 +03 07.4 3.801 3.446 61.8 14.7 20.8 2010 02 28 02 32.21 +03 36.6 3.890 3.474 58.4 14.0 20.9 2010 03 05 02 37.81 +04 05.5 3.976 3.502 54.9 13.4 20.9 2010 03 10 02 43.51 +04 34.0 4.061 3.530 51.6 12.7 21.0 2010 03 15 02 49.31 +05 01.9 4.143 3.558 48.2 12.0 21.1 2010 03 20 02 55.19 +05 29.2 4.222 3.587 44.9 11.3 21.2 2010 03 25 03 01.14 +05 55.7 4.299 3.615 41.6 10.6 21.2 2010 03 30 03 07.14 +06 21.3 4.373 3.644 38.4 9.8 21.3 2010 04 04 03 13.20 +06 46.0 4.443 3.672 35.2 9.0 21.4 2010 04 09 03 19.29 +07 09.7 4.510 3.701 32.1 8.3 21.5 2010 04 14 03 25.42 +07 32.2 4.574 3.729 29.0 7.5 21.5 2010 04 19 03 31.56 +07 53.6 4.634 3.758 26.0 6.7 21.6 2010 04 24 03 37.72 +08 13.7 4.691 3.787 23.1 6.0 21.6 2010 04 29 03 43.88 +08 32.6 4.744 3.816 20.3 5.3 21.7 2010 05 04 03 50.03 +08 50.2 4.793 3.844 17.7 4.6 21.8 2010 05 09 03 56.16 +09 06.4 4.838 3.873 15.3 4.0 21.8 2010 05 14 04 02.28 +09 21.2 4.879 3.902 13.3 3.4 21.9 2010 05 19 04 08.35 +09 34.5 4.915 3.931 11.9 3.0 21.9 2010 05 24 04 14.39 +09 46.5 4.948 3.960 11.3 2.9 21.9 2010 05 29 04 20.37 +09 56.9 4.977 3.989 11.6 2.9 22.0 2010 06 03 04 26.30 +10 05.9 5.001 4.018 12.8 3.2 22.0 2010 06 08 04 32.15 +10 13.4 5.021 4.047 14.6 3.6 22.1 2010 06 13 04 37.93 +10 19.4 5.037 4.076 16.9 4.2 22.1 2010 06 18 04 43.62 +10 23.9 5.049 4.105 19.6 4.8 22.1 2010 06 23 04 49.21 +10 26.9 5.056 4.134 22.4 5.4 22.2 2010 06 28 04 54.69 +10 28.4 5.059 4.163 25.4 6.0 22.2 2010 07 03 05 00.06 +10 28.4 5.058 4.192 28.5 6.6 22.2 2010 07 08 05 05.29 +10 27.0 5.053 4.221 31.6 7.3 22.3 2010 07 13 05 10.39 +10 24.2 5.044 4.251 34.9 7.9 22.3 2010 07 18 05 15.34 +10 19.9 5.031 4.280 38.3 8.5 22.3 2010 07 23 05 20.12 +10 14.3 5.014 4.309 41.7 9.0 22.3 2010 07 28 05 24.72 +10 07.3 4.994 4.338 45.1 9.6 22.4 2010 08 02 05 29.14 +09 59.0 4.970 4.366 48.7 10.1 22.4 2010 08 07 05 33.37 +09 49.5 4.942 4.395 52.3 10.5 22.4 2010 08 12 05 37.37 +09 38.7 4.912 4.424 55.9 10.9 22.4 2010 08 17 05 41.15 +09 26.8 4.878 4.453 59.7 11.3 22.4 2010 08 22 05 44.69 +09 13.8 4.842 4.482 63.5 11.6 22.4 2010 08 27 05 47.98 +08 59.8 4.803 4.511 67.3 11.9 22.5 2010 09 01 05 51.00 +08 44.9 4.762 4.540 71.3 12.2 22.5 2010 09 06 05 53.73 +08 29.0 4.719 4.569 75.3 12.3 22.5 2010 09 11 05 56.17 +08 12.4 4.675 4.597 79.4 12.4 22.5 2010 09 16 05 58.30 +07 55.1 4.629 4.626 83.6 12.5 22.5 2010 09 21 06 00.10 +07 37.2 4.583 4.655 87.8 12.4 22.5 2010 09 26 06 01.57 +07 18.9 4.537 4.683 92.2 12.4 22.5 2010 10 01 06 02.70 +07 00.3 4.491 4.712 96.6 12.2 22.5 2010 10 06 06 03.47 +06 41.5 4.445 4.740 101.1 11.9 22.5 2010 10 11 06 03.87 +06 22.7 4.401 4.769 105.7 11.6 22.5 2010 10 16 06 03.92 +06 04.1 4.359 4.797 110.3 11.2 22.5 2010 10 21 06 03.59 +05 45.7 4.319 4.826 115.1 10.8 22.5 2010 10 26 06 02.91 +05 27.9 4.282 4.854 119.9 10.2 22.5 2010 10 31 06 01.88 +05 10.7 4.249 4.883 124.7 9.6 22.5 2010 11 05 06 00.50 +04 54.5 4.220 4.911 129.5 9.0 22.5 2010 11 10 05 58.81 +04 39.3 4.195 4.939 134.4 8.2 22.6 2010 11 15 05 56.82 +04 25.4 4.176 4.967 139.2 7.5 22.6 2010 11 20 05 54.57 +04 13.0 4.163 4.995 143.9 6.7 22.6 2010 11 25 05 52.10 +04 02.2 4.156 5.024 148.4 5.9 22.6 2010 11 30 05 49.44 +03 53.2 4.156 5.052 152.5 5.2 22.6

Valid HTML 4.01!